COSMO-SKYMED 2

Last updated on Mon Sep 21 2026 00:02:45 GMT+0000 (Coordinated Universal Time)

1 32376U 07059A 26263.62098792 .00000235 00000+0 36057-4 0 9998 2 32376 97.8914 85.8606 0001332 91.3684 268.7682 14.82152647 16145
UTC large
Height (km)
Speed (km/s)
/
Latitude / Longitude
Inclination (degrees)
Orbital Period (minutes)
Azimuth
Elevation
Range (km)
Doppler Factor

Next 0 passes for location: London (51.5072 / 0.1276)

No passes found over London.
COSMO-SKYMED 2